Year,Month,Day,Hour,Minute,Value (Times are PST for temperature in C)
2014,11,29,00,00,3.90
2014,11,29,00,01,3.90
2014,11,29,00,02,3.90
2014,11,29,00,03,3.80
2014,11,29,00,04,3.80
2014,11,29,00,05,3.80
2014,11,29,00,06,3.80
2014,11,29,00,07,3.80
2014,11,29,00,08,3.80
2014,11,29,00,09,3.80
2014,11,29,00,10,3.70
2014,11,29,00,11,3.70
2014,11,29,00,12,3.70
2014,11,29,00,13,3.70
2014,11,29,00,14,3.70
2014,11,29,00,15,3.70
2014,11,29,00,16,3.70
2014,11,29,00,17,3.70
2014,11,29,00,18,3.70
2014,11,29,00,19,3.70
2014,11,29,00,20,3.60
2014,11,29,00,21,3.60
2014,11,29,00,22,3.60
2014,11,29,00,23,3.60
2014,11,29,00,24,3.60
2014,11,29,00,25,3.50
2014,11,29,00,26,3.50
2014,11,29,00,27,3.50
2014,11,29,00,28,3.50
2014,11,29,00,29,3.50
2014,11,29,00,30,3.40
2014,11,29,00,31,3.40
2014,11,29,00,32,3.40
2014,11,29,00,33,3.40
2014,11,29,00,34,3.40
2014,11,29,00,35,3.40
2014,11,29,00,36,3.40
2014,11,29,00,37,3.40
2014,11,29,00,38,3.40
2014,11,29,00,39,3.40
2014,11,29,00,40,3.40
2014,11,29,00,41,3.30
2014,11,29,00,42,3.30
2014,11,29,00,43,3.30
2014,11,29,00,44,3.30
2014,11,29,00,45,3.30
2014,11,29,00,46,3.30
2014,11,29,00,47,3.30
2014,11,29,00,48,3.30
2014,11,29,00,49,3.20
2014,11,29,00,50,3.20
2014,11,29,00,51,3.20
2014,11,29,00,52,3.20
2014,11,29,00,53,3.20
2014,11,29,00,54,3.20
2014,11,29,00,55,3.20
2014,11,29,00,56,3.20
2014,11,29,00,57,3.20
2014,11,29,00,58,3.20
2014,11,29,00,59,3.20
2014,11,29,01,00,3.20
2014,11,29,01,01,3.10
2014,11,29,01,02,3.10
2014,11,29,01,03,3.10
2014,11,29,01,04,3.10
2014,11,29,01,05,3.10
2014,11,29,01,06,3.10
2014,11,29,01,07,3.10
2014,11,29,01,08,3.10
2014,11,29,01,09,3.10
2014,11,29,01,10,3.10
2014,11,29,01,11,3.10
2014,11,29,01,12,3.00
2014,11,29,01,13,3.00
2014,11,29,01,14,3.00
2014,11,29,01,15,3.00
2014,11,29,01,16,2.90
2014,11,29,01,17,2.90
2014,11,29,01,18,2.90
2014,11,29,01,19,2.90
2014,11,29,01,20,2.90
2014,11,29,01,21,2.90
2014,11,29,01,22,2.80
2014,11,29,01,23,2.80
2014,11,29,01,24,2.80
2014,11,29,01,25,2.80
2014,11,29,01,26,2.80
2014,11,29,01,27,2.70
2014,11,29,01,28,2.70
2014,11,29,01,29,2.70
2014,11,29,01,30,2.70
2014,11,29,01,31,2.70
2014,11,29,01,32,2.70
2014,11,29,01,33,2.60
2014,11,29,01,34,2.60
2014,11,29,01,35,2.60
2014,11,29,01,36,2.60
2014,11,29,01,37,2.60
2014,11,29,01,38,2.60
2014,11,29,01,39,2.60
2014,11,29,01,40,2.60
2014,11,29,01,41,2.60
2014,11,29,01,42,2.50
2014,11,29,01,43,2.50
2014,11,29,01,44,2.50
2014,11,29,01,45,2.50
2014,11,29,01,46,2.50
2014,11,29,01,47,2.50
2014,11,29,01,48,2.50
2014,11,29,01,49,2.50
2014,11,29,01,50,2.50
2014,11,29,01,51,2.50
2014,11,29,01,52,2.50
2014,11,29,01,53,2.40
2014,11,29,01,54,2.40
2014,11,29,01,55,2.40
2014,11,29,01,56,2.40
2014,11,29,01,57,2.40
2014,11,29,01,58,2.30
2014,11,29,01,59,2.30
2014,11,29,02,00,2.30
2014,11,29,02,01,2.30
2014,11,29,02,02,2.30
2014,11,29,02,03,2.30
2014,11,29,02,04,2.20
2014,11,29,02,05,2.20
2014,11,29,02,06,2.20
2014,11,29,02,07,2.20
2014,11,29,02,08,2.20
2014,11,29,02,09,2.20
2014,11,29,02,10,2.20
2014,11,29,02,11,2.10
2014,11,29,02,12,2.10
2014,11,29,02,13,2.10
2014,11,29,02,14,2.00
2014,11,29,02,15,2.00
2014,11,29,02,16,2.00
2014,11,29,02,17,2.00
2014,11,29,02,18,1.90
2014,11,29,02,19,1.90
2014,11,29,02,20,1.90
2014,11,29,02,21,1.90
2014,11,29,02,22,1.80
2014,11,29,02,23,1.80
2014,11,29,02,24,1.80
2014,11,29,02,25,1.80
2014,11,29,02,26,1.80
2014,11,29,02,27,1.70
2014,11,29,02,28,1.70
2014,11,29,02,29,1.70
2014,11,29,02,30,1.70
2014,11,29,02,31,1.60
2014,11,29,02,32,1.60
2014,11,29,02,33,1.60
2014,11,29,02,34,1.60
2014,11,29,02,35,1.60
2014,11,29,02,36,1.60
2014,11,29,02,37,1.50
2014,11,29,02,38,1.40
2014,11,29,02,39,1.40
2014,11,29,02,40,1.30
2014,11,29,02,41,1.20
2014,11,29,02,42,1.20
2014,11,29,02,43,1.10
2014,11,29,02,44,1.00
2014,11,29,02,45,1.00
2014,11,29,02,46,0.90
2014,11,29,02,47,0.80
2014,11,29,02,48,0.80
2014,11,29,02,49,0.80
2014,11,29,02,50,0.70
2014,11,29,02,51,0.60
2014,11,29,02,52,0.60
2014,11,29,02,53,0.50
2014,11,29,02,54,0.50
2014,11,29,02,55,0.40
2014,11,29,02,56,0.40
2014,11,29,02,57,0.30
2014,11,29,02,58,0.30
2014,11,29,02,59,0.30
2014,11,29,03,00,0.20
2014,11,29,03,01,0.20
2014,11,29,03,02,0.20
2014,11,29,03,03,0.20
2014,11,29,03,04,0.10
2014,11,29,03,05,0.10
2014,11,29,03,06,0.10
2014,11,29,03,07,0.10
2014,11,29,03,08,0.00
2014,11,29,03,09,0.00
2014,11,29,03,10,0.00
2014,11,29,03,11,-0.10
2014,11,29,03,12,-0.10
2014,11,29,03,13,-0.10
2014,11,29,03,14,-0.10
2014,11,29,03,15,-0.10
2014,11,29,03,16,-0.20
2014,11,29,03,17,-0.20
2014,11,29,03,18,-0.30
2014,11,29,03,19,-0.30
2014,11,29,03,20,-0.30
2014,11,29,03,21,-0.40
2014,11,29,03,22,-0.40
2014,11,29,03,23,-0.40
2014,11,29,03,24,-0.50
2014,11,29,03,25,-0.50
2014,11,29,03,26,-0.60
2014,11,29,03,27,-0.60
2014,11,29,03,28,-0.70
2014,11,29,03,29,-0.70
2014,11,29,03,30,-0.80
2014,11,29,03,31,-0.80
2014,11,29,03,32,-0.80
2014,11,29,03,33,-0.80
2014,11,29,03,34,-0.90
2014,11,29,03,35,-0.90
2014,11,29,03,36,-1.00
2014,11,29,03,37,-1.00
2014,11,29,03,38,-1.10
2014,11,29,03,39,-1.10
2014,11,29,03,40,-1.10
2014,11,29,03,41,-1.10
2014,11,29,03,42,-1.10
2014,11,29,03,43,-1.10
2014,11,29,03,44,-1.10
2014,11,29,03,45,-1.10
2014,11,29,03,46,-1.10
2014,11,29,03,47,-1.10
2014,11,29,03,48,-1.10
2014,11,29,03,49,-1.20
2014,11,29,03,50,-1.20
2014,11,29,03,51,-1.20
2014,11,29,03,52,-1.20
2014,11,29,03,53,-1.20
2014,11,29,03,54,-1.20
2014,11,29,03,55,-1.20
2014,11,29,03,56,-1.20
2014,11,29,03,57,-1.20
2014,11,29,03,58,-1.20
2014,11,29,03,59,-1.20
2014,11,29,04,00,-1.20
2014,11,29,04,01,-1.20
2014,11,29,04,02,-1.20
2014,11,29,04,03,-1.30
2014,11,29,04,04,-1.30
2014,11,29,04,05,-1.30
2014,11,29,04,06,-1.30
2014,11,29,04,07,-1.30
2014,11,29,04,08,-1.30
2014,11,29,04,09,-1.30
2014,11,29,04,10,-1.30
2014,11,29,04,11,-1.30
2014,11,29,04,12,-1.30
2014,11,29,04,13,-1.30
2014,11,29,04,14,-1.30
2014,11,29,04,15,-1.30
2014,11,29,04,16,-1.30
2014,11,29,04,17,-1.30
2014,11,29,04,18,-1.30
2014,11,29,04,19,-1.30
2014,11,29,04,20,-1.30
2014,11,29,04,21,-1.30
2014,11,29,04,22,-1.30
2014,11,29,04,23,-1.30
2014,11,29,04,24,-1.30
2014,11,29,04,25,-1.30
2014,11,29,04,26,-1.30
2014,11,29,04,27,-1.30
2014,11,29,04,28,-1.30
2014,11,29,04,29,-1.30
2014,11,29,04,30,-1.20
2014,11,29,04,31,-1.20
2014,11,29,04,32,-1.20
2014,11,29,04,33,-1.20
2014,11,29,04,34,-1.20
2014,11,29,04,35,-1.20
2014,11,29,04,36,-1.30
2014,11,29,04,37,-1.30
2014,11,29,04,38,-1.30
2014,11,29,04,39,-1.30
2014,11,29,04,40,-1.30
2014,11,29,04,41,-1.30
2014,11,29,04,42,-1.30
2014,11,29,04,43,-1.30
2014,11,29,04,44,-1.30
2014,11,29,04,45,-1.30
2014,11,29,04,46,-1.30
2014,11,29,04,47,-1.20
2014,11,29,04,48,-1.20
2014,11,29,04,49,-1.20
2014,11,29,04,50,-1.20
2014,11,29,04,51,-1.20
2014,11,29,04,52,-1.20
2014,11,29,04,53,-1.20
2014,11,29,04,54,-1.20
2014,11,29,04,55,-1.20
2014,11,29,04,56,-1.20
2014,11,29,04,57,-1.20
2014,11,29,04,58,-1.20
2014,11,29,04,59,-1.20
2014,11,29,05,00,-1.20
2014,11,29,05,01,-1.20
2014,11,29,05,02,-1.20
2014,11,29,05,03,-1.20
2014,11,29,05,04,-1.20
2014,11,29,05,05,-1.20
2014,11,29,05,06,-1.20
2014,11,29,05,07,-1.20
2014,11,29,05,08,-1.20
2014,11,29,05,09,-1.20
2014,11,29,05,10,-1.30
2014,11,29,05,11,-1.30
2014,11,29,05,12,-1.30
2014,11,29,05,13,-1.30
2014,11,29,05,14,-1.30
2014,11,29,05,15,-1.30
2014,11,29,05,16,-1.30
2014,11,29,05,17,-1.30
2014,11,29,05,18,-1.30
2014,11,29,05,19,-1.30
2014,11,29,05,20,-1.30
2014,11,29,05,21,-1.30
2014,11,29,05,22,-1.30
2014,11,29,05,23,-1.30
2014,11,29,05,24,-1.30
2014,11,29,05,25,-1.30
2014,11,29,05,26,-1.30
2014,11,29,05,27,-1.30
2014,11,29,05,28,-1.30
2014,11,29,05,29,-1.30
2014,11,29,05,30,-1.30
2014,11,29,05,31,-1.30
2014,11,29,05,32,-1.30
2014,11,29,05,33,-1.30
2014,11,29,05,34,-1.30
2014,11,29,05,35,-1.30
2014,11,29,05,36,-1.30
2014,11,29,05,37,-1.30
2014,11,29,05,38,-1.30
2014,11,29,05,39,-1.30
2014,11,29,05,40,-1.30
2014,11,29,05,41,-1.30
2014,11,29,05,42,-1.30
2014,11,29,05,43,-1.30
2014,11,29,05,44,-1.40
2014,11,29,05,45,-1.40
2014,11,29,05,46,-1.40
2014,11,29,05,47,-1.30
2014,11,29,05,48,-1.40
2014,11,29,05,49,-1.40
2014,11,29,05,50,-1.40
2014,11,29,05,51,-1.40
2014,11,29,05,52,-1.40
2014,11,29,05,53,-1.40
2014,11,29,05,54,-1.40
2014,11,29,05,55,-1.40
2014,11,29,05,56,-1.40
2014,11,29,05,57,-1.40
2014,11,29,05,58,-1.50
2014,11,29,05,59,-1.50
2014,11,29,06,00,-1.50
2014,11,29,06,01,-1.50
2014,11,29,06,02,-1.50
2014,11,29,06,03,-1.50
2014,11,29,06,04,-1.50
2014,11,29,06,05,-1.50
2014,11,29,06,06,-1.50
2014,11,29,06,07,-1.50
2014,11,29,06,08,-1.50
2014,11,29,06,09,-1.50
2014,11,29,06,10,-1.50
2014,11,29,06,11,-1.60
2014,11,29,06,12,-1.60
2014,11,29,06,13,-1.60
2014,11,29,06,14,-1.60
2014,11,29,06,15,-1.60
2014,11,29,06,16,-1.60
2014,11,29,06,17,-1.60
2014,11,29,06,18,-1.60
2014,11,29,06,19,-1.60
2014,11,29,06,20,-1.60
2014,11,29,06,21,-1.60
2014,11,29,06,22,-1.60
2014,11,29,06,23,-1.60
2014,11,29,06,24,-1.60
2014,11,29,06,25,-1.60
2014,11,29,06,26,-1.70
2014,11,29,06,27,-1.70
2014,11,29,06,28,-1.70
2014,11,29,06,29,-1.70
2014,11,29,06,30,-1.70
2014,11,29,06,31,-1.70
2014,11,29,06,32,-1.70
2014,11,29,06,33,-1.70
2014,11,29,06,34,-1.70
2014,11,29,06,35,-1.70
2014,11,29,06,36,-1.70
2014,11,29,06,37,-1.70
2014,11,29,06,38,-1.70
2014,11,29,06,39,-1.70
2014,11,29,06,40,-1.70
2014,11,29,06,41,-1.70
2014,11,29,06,42,-1.70
2014,11,29,06,43,-1.70
2014,11,29,06,44,-1.70
2014,11,29,06,45,-1.70
2014,11,29,06,46,-1.70
2014,11,29,06,47,-1.60
2014,11,29,06,48,-1.60
2014,11,29,06,49,-1.60
2014,11,29,06,50,-1.60
2014,11,29,06,51,-1.60
2014,11,29,06,52,-1.60
2014,11,29,06,53,-1.60
2014,11,29,06,54,-1.50
2014,11,29,06,55,-1.50
2014,11,29,06,56,-1.50
2014,11,29,06,57,-1.50
2014,11,29,06,58,-1.50
2014,11,29,06,59,-1.50
2014,11,29,07,00,-1.40
2014,11,29,07,01,-1.40
2014,11,29,07,02,-1.40
2014,11,29,07,03,-1.40
2014,11,29,07,04,-1.40
2014,11,29,07,05,-1.40
2014,11,29,07,06,-1.40
2014,11,29,07,07,-1.40
2014,11,29,07,08,-1.40
2014,11,29,07,09,-1.40
2014,11,29,07,10,-1.40
2014,11,29,07,11,-1.40
2014,11,29,07,12,-1.50
2014,11,29,07,13,-1.50
2014,11,29,07,14,-1.50
2014,11,29,07,15,-1.50
2014,11,29,07,16,-1.50
2014,11,29,07,17,-1.60
2014,11,29,07,18,-1.60
2014,11,29,07,19,-1.60
2014,11,29,07,20,-1.60
2014,11,29,07,21,-1.60
2014,11,29,07,22,-1.60
2014,11,29,07,23,-1.60
2014,11,29,07,24,-1.60
2014,11,29,07,25,-1.60
2014,11,29,07,26,-1.60
2014,11,29,07,27,-1.70
2014,11,29,07,28,-1.70
2014,11,29,07,29,-1.70
2014,11,29,07,30,-1.70
2014,11,29,07,31,-1.70
2014,11,29,07,32,-1.70
2014,11,29,07,33,-1.70
2014,11,29,07,34,-1.70
2014,11,29,07,35,-1.70
2014,11,29,07,36,-1.70
2014,11,29,07,37,-1.70
2014,11,29,07,38,-1.70
2014,11,29,07,39,-1.70
2014,11,29,07,40,-1.70
2014,11,29,07,41,-1.70
2014,11,29,07,42,-1.70
2014,11,29,07,43,-1.80
2014,11,29,07,44,-1.80
2014,11,29,07,45,-1.80
2014,11,29,07,46,-1.80
2014,11,29,07,47,-1.80
2014,11,29,07,48,-1.80
2014,11,29,07,49,-1.80
2014,11,29,07,50,-1.80
2014,11,29,07,51,-1.80
2014,11,29,07,52,-1.80
2014,11,29,07,53,-1.80
2014,11,29,07,54,-1.80
2014,11,29,07,55,-1.80
2014,11,29,07,56,-1.80
2014,11,29,07,57,-1.80
2014,11,29,07,58,-1.80
2014,11,29,07,59,-1.80
2014,11,29,08,00,-1.80
2014,11,29,08,01,-1.80
2014,11,29,08,02,-1.80
2014,11,29,08,03,-1.80
2014,11,29,08,04,-1.80
2014,11,29,08,05,-1.80
2014,11,29,08,06,-1.80
2014,11,29,08,07,-1.70
2014,11,29,08,08,-1.70
2014,11,29,08,09,-1.70
2014,11,29,08,10,-1.70
2014,11,29,08,11,-1.70
2014,11,29,08,12,-1.70
2014,11,29,08,13,-1.70
2014,11,29,08,14,-1.70
2014,11,29,08,15,-1.70
2014,11,29,08,16,-1.70
2014,11,29,08,17,-1.70
2014,11,29,08,18,-1.70
2014,11,29,08,19,-1.80
2014,11,29,08,20,-1.80
2014,11,29,08,21,-1.80
2014,11,29,08,22,-1.80
2014,11,29,08,23,-1.80
2014,11,29,08,24,-1.80
2014,11,29,08,25,-1.80
2014,11,29,08,26,-1.80
2014,11,29,08,27,-1.80
2014,11,29,08,28,-1.80
2014,11,29,08,29,-1.80
2014,11,29,08,30,-1.80
2014,11,29,08,31,-1.80
2014,11,29,08,32,-1.80
2014,11,29,08,33,-1.80
2014,11,29,08,34,-1.80
2014,11,29,08,35,-1.70
2014,11,29,08,36,-1.70
2014,11,29,08,37,-1.70
2014,11,29,08,38,-1.70
2014,11,29,08,39,-1.70
2014,11,29,08,40,-1.70
2014,11,29,08,41,-1.70
2014,11,29,08,42,-1.70
2014,11,29,08,43,-1.70
2014,11,29,08,44,-1.70
2014,11,29,08,45,-1.70
2014,11,29,08,46,-1.70
2014,11,29,08,47,-1.70
2014,11,29,08,48,-1.70
2014,11,29,08,49,-1.70
2014,11,29,08,50,-1.70
2014,11,29,08,51,-1.70
2014,11,29,08,52,-1.70
2014,11,29,08,53,-1.70
2014,11,29,08,54,-1.70
2014,11,29,08,55,-1.70
2014,11,29,08,56,-1.70
2014,11,29,08,57,-1.70
2014,11,29,08,58,-1.70
2014,11,29,08,59,-1.70
2014,11,29,09,00,-1.70
2014,11,29,09,01,-1.70
2014,11,29,09,02,-1.70
2014,11,29,09,03,-1.70
2014,11,29,09,04,-1.70
2014,11,29,09,05,-1.70
2014,11,29,09,06,-1.70
2014,11,29,09,07,-1.70
2014,11,29,09,08,-1.70
2014,11,29,09,09,-1.70
2014,11,29,09,10,-1.70
2014,11,29,09,11,-1.70
2014,11,29,09,12,-1.60
2014,11,29,09,13,-1.60
2014,11,29,09,14,-1.60
2014,11,29,09,15,-1.60
2014,11,29,09,16,-1.60
2014,11,29,09,17,-1.60
2014,11,29,09,18,-1.60
2014,11,29,09,19,-1.60
2014,11,29,09,20,-1.60
2014,11,29,09,21,-1.60
2014,11,29,09,22,-1.60
2014,11,29,09,23,-1.60
2014,11,29,09,24,-1.60
2014,11,29,09,25,-1.60
2014,11,29,09,26,-1.60
2014,11,29,09,27,-1.60
2014,11,29,09,28,-1.60
2014,11,29,09,29,-1.60
2014,11,29,09,30,-1.60
2014,11,29,09,31,-1.70
2014,11,29,09,32,-1.70
2014,11,29,09,33,-1.70
2014,11,29,09,34,-1.70
2014,11,29,09,35,-1.70
2014,11,29,09,36,-1.70
2014,11,29,09,37,-1.70
2014,11,29,09,38,-1.70
2014,11,29,09,39,-1.70
2014,11,29,09,40,-1.70
2014,11,29,09,41,-1.70
2014,11,29,09,42,-1.70
2014,11,29,09,43,-1.70
2014,11,29,09,44,-1.70
2014,11,29,09,45,-1.70
2014,11,29,09,46,-1.70
2014,11,29,09,47,-1.70
2014,11,29,09,48,-1.70
2014,11,29,09,49,-1.70
2014,11,29,09,50,-1.70
2014,11,29,09,51,-1.70
2014,11,29,09,52,-1.70
2014,11,29,09,53,-1.70
2014,11,29,09,54,-1.70
2014,11,29,09,55,-1.70
2014,11,29,09,56,-1.70
2014,11,29,09,57,-1.70
2014,11,29,09,58,-1.70
2014,11,29,09,59,-1.70
2014,11,29,10,00,-1.70
2014,11,29,10,01,-1.70
2014,11,29,10,02,-1.80
2014,11,29,10,03,-1.80
2014,11,29,10,04,-1.80
2014,11,29,10,05,-1.80
2014,11,29,10,06,-1.80
2014,11,29,10,07,-1.80
2014,11,29,10,08,-1.80
2014,11,29,10,09,-1.80
2014,11,29,10,10,-1.80
2014,11,29,10,11,-1.80
2014,11,29,10,12,-1.80
2014,11,29,10,13,-1.80
2014,11,29,10,14,-1.80
2014,11,29,10,15,-1.80
2014,11,29,10,16,-1.80
2014,11,29,10,17,-1.70
2014,11,29,10,18,-1.70
2014,11,29,10,19,-1.70
2014,11,29,10,20,-1.70
2014,11,29,10,21,-1.70
2014,11,29,10,22,-1.70
2014,11,29,10,23,-1.70
2014,11,29,10,24,-1.70
2014,11,29,10,25,-1.60
2014,11,29,10,26,-1.60
2014,11,29,10,27,-1.60
2014,11,29,10,28,-1.60
2014,11,29,10,29,-1.60
2014,11,29,10,30,-1.60
2014,11,29,10,31,-1.60
2014,11,29,10,32,-1.60
2014,11,29,10,33,-1.50
2014,11,29,10,34,-1.50
2014,11,29,10,35,-1.40
2014,11,29,10,36,-1.40
2014,11,29,10,37,-1.40
2014,11,29,10,38,-1.40
2014,11,29,10,39,-1.40
2014,11,29,10,40,-1.40
2014,11,29,10,41,-1.30
2014,11,29,10,42,-1.30
2014,11,29,10,43,-1.30
2014,11,29,10,44,-1.30
2014,11,29,10,45,-1.30
2014,11,29,10,46,-1.30
2014,11,29,10,47,-1.30
2014,11,29,10,48,-1.30
2014,11,29,10,49,-1.30
2014,11,29,10,50,-1.30
2014,11,29,10,51,-1.30
2014,11,29,10,52,-1.30
2014,11,29,10,53,-1.30
2014,11,29,10,54,-1.30
2014,11,29,10,55,-1.30
2014,11,29,10,56,-1.30
2014,11,29,10,57,-1.30
2014,11,29,10,58,-1.30
2014,11,29,10,59,-1.30
2014,11,29,11,00,-1.30
2014,11,29,11,01,-1.30
2014,11,29,11,02,-1.30
2014,11,29,11,03,-1.30
2014,11,29,11,04,-1.30
2014,11,29,11,05,-1.30
2014,11,29,11,06,-1.30
2014,11,29,11,07,-1.30
2014,11,29,11,08,-1.30
2014,11,29,11,09,-1.30
2014,11,29,11,10,-1.30
2014,11,29,11,11,-1.30
2014,11,29,11,12,-1.30
2014,11,29,11,13,-1.30
2014,11,29,11,14,-1.30
2014,11,29,11,15,-1.30
2014,11,29,11,16,-1.20
2014,11,29,11,17,-1.20
2014,11,29,11,18,-1.10
2014,11,29,11,19,-1.00
2014,11,29,11,20,-1.00
2014,11,29,11,21,-0.90
2014,11,29,11,22,-0.80
2014,11,29,11,23,-0.80
2014,11,29,11,24,-0.70
2014,11,29,11,25,-0.70
2014,11,29,11,26,-0.60
2014,11,29,11,27,-0.60
2014,11,29,11,28,-0.60
2014,11,29,11,29,-0.60
2014,11,29,11,30,-0.50
2014,11,29,11,31,-0.50
2014,11,29,11,32,-0.50
2014,11,29,11,33,-0.50
2014,11,29,11,34,-0.40
2014,11,29,11,35,-0.40
2014,11,29,11,36,-0.40
2014,11,29,11,37,-0.30
2014,11,29,11,38,-0.30
2014,11,29,11,39,-0.30
2014,11,29,11,40,-0.30
2014,11,29,11,41,-0.20
2014,11,29,11,42,-0.20
2014,11,29,11,43,-0.20
2014,11,29,11,44,-0.10
2014,11,29,11,45,-0.10
2014,11,29,11,46,0.00
2014,11,29,11,47,0.10
2014,11,29,11,48,0.10
2014,11,29,11,49,0.10
2014,11,29,11,50,0.10
2014,11,29,11,51,0.20
2014,11,29,11,52,0.20
2014,11,29,11,53,0.20
2014,11,29,11,54,0.20
2014,11,29,11,55,0.30
2014,11,29,11,56,0.30
2014,11,29,11,57,0.30
2014,11,29,11,58,0.30
2014,11,29,11,59,0.30
2014,11,29,12,00,0.30
2014,11,29,12,01,0.30
2014,11,29,12,02,0.30
2014,11,29,12,03,0.40
2014,11,29,12,04,0.40
2014,11,29,12,05,0.40
2014,11,29,12,06,0.40
2014,11,29,12,07,0.40
2014,11,29,12,08,0.40
2014,11,29,12,09,0.40
2014,11,29,12,10,0.40
2014,11,29,12,11,0.40
2014,11,29,12,12,0.30
2014,11,29,12,13,0.30
2014,11,29,12,14,0.30
2014,11,29,12,15,0.30
2014,11,29,12,16,0.30
2014,11,29,12,17,0.30
2014,11,29,12,18,0.30
2014,11,29,12,19,0.40
2014,11,29,12,20,0.40
2014,11,29,12,21,0.40
2014,11,29,12,22,0.40
2014,11,29,12,23,0.40
2014,11,29,12,24,0.40
2014,11,29,12,25,0.30
2014,11,29,12,26,0.30
2014,11,29,12,27,0.30
2014,11,29,12,28,0.20
2014,11,29,12,29,0.20
2014,11,29,12,30,0.20
2014,11,29,12,31,0.10
2014,11,29,12,32,0.10
2014,11,29,12,33,0.10
2014,11,29,12,34,0.10
2014,11,29,12,35,0.10
2014,11,29,12,36,0.10
2014,11,29,12,37,0.10
2014,11,29,12,38,0.10
2014,11,29,12,39,0.20
2014,11,29,12,40,0.20
2014,11,29,12,41,0.20
2014,11,29,12,42,0.20
2014,11,29,12,43,0.20
2014,11,29,12,44,0.30
2014,11,29,12,45,0.30
2014,11,29,12,46,0.30
2014,11,29,12,47,0.30
2014,11,29,12,48,0.30
2014,11,29,12,49,0.30
2014,11,29,12,50,0.30
2014,11,29,12,51,0.30
2014,11,29,12,52,0.20
2014,11,29,12,53,0.20
2014,11,29,12,54,0.20
2014,11,29,12,55,0.20
2014,11,29,12,56,0.20
2014,11,29,12,57,0.20
2014,11,29,12,58,0.20
2014,11,29,12,59,0.20
2014,11,29,13,00,0.20
2014,11,29,13,01,0.20
2014,11,29,13,02,0.20
2014,11,29,13,03,0.20
2014,11,29,13,04,0.20
2014,11,29,13,05,0.20
2014,11,29,13,06,0.20
2014,11,29,13,07,0.10
2014,11,29,13,08,0.10
2014,11,29,13,09,0.20
2014,11,29,13,10,0.20
2014,11,29,13,11,0.20
2014,11,29,13,12,0.20
2014,11,29,13,13,0.20
2014,11,29,13,14,0.20
2014,11,29,13,15,0.20
2014,11,29,13,16,0.20
2014,11,29,13,17,0.20
2014,11,29,13,18,0.10
2014,11,29,13,19,0.10
2014,11,29,13,20,0.10
2014,11,29,13,21,0.10
2014,11,29,13,22,0.10
2014,11,29,13,23,0.10
2014,11,29,13,24,0.20
2014,11,29,13,25,0.20
2014,11,29,13,26,0.20
2014,11,29,13,27,0.20
2014,11,29,13,28,0.20
2014,11,29,13,29,0.30
2014,11,29,13,30,0.30
2014,11,29,13,31,0.30
2014,11,29,13,32,0.30
2014,11,29,13,33,0.30
2014,11,29,13,34,0.20
2014,11,29,13,35,0.20
2014,11,29,13,36,0.20
2014,11,29,13,37,0.20
2014,11,29,13,38,0.20
2014,11,29,13,39,0.20
2014,11,29,13,40,0.10
2014,11,29,13,41,0.10
2014,11,29,13,42,0.10
2014,11,29,13,43,0.10
2014,11,29,13,44,0.10
2014,11,29,13,45,0.10
2014,11,29,13,46,0.10
2014,11,29,13,47,0.20
2014,11,29,13,48,0.20
2014,11,29,13,49,0.20
2014,11,29,13,50,0.30
2014,11,29,13,51,0.30
2014,11,29,13,52,0.30
2014,11,29,13,53,0.30
2014,11,29,13,54,0.30
2014,11,29,13,55,0.30
2014,11,29,13,56,0.30
2014,11,29,13,57,0.30
2014,11,29,13,58,0.30
2014,11,29,13,59,0.30
2014,11,29,14,00,0.30
2014,11,29,14,17,0.50
2014,11,29,14,18,0.40
2014,11,29,14,19,0.40
2014,11,29,14,20,0.40
2014,11,29,14,21,0.40
2014,11,29,14,22,0.40
2014,11,29,14,23,0.40
2014,11,29,14,24,0.40
2014,11,29,14,25,0.40
2014,11,29,14,26,0.40
2014,11,29,14,27,0.40
2014,11,29,14,28,0.40
2014,11,29,14,29,0.40
2014,11,29,14,30,0.40
2014,11,29,14,31,0.40
2014,11,29,14,32,0.40
2014,11,29,14,33,0.40
2014,11,29,14,34,0.40
2014,11,29,14,35,0.40
2014,11,29,14,36,0.40
2014,11,29,14,37,0.40
2014,11,29,14,38,0.40
2014,11,29,14,39,0.40
2014,11,29,14,40,0.40
2014,11,29,14,41,0.40
2014,11,29,14,42,0.40
2014,11,29,14,43,0.40
2014,11,29,14,44,0.40
2014,11,29,14,45,0.40
2014,11,29,14,46,0.40
2014,11,29,14,47,0.40
2014,11,29,14,48,0.40
2014,11,29,14,49,0.40
2014,11,29,14,50,0.40
2014,11,29,14,51,0.40
2014,11,29,14,52,0.40
2014,11,29,14,53,0.40
2014,11,29,14,54,0.40
2014,11,29,14,55,0.40
2014,11,29,14,56,0.50
2014,11,29,14,57,0.50
2014,11,29,14,58,0.40
2014,11,29,14,59,0.40
2014,11,29,15,00,0.40
2014,11,29,15,01,0.30
2014,11,29,15,02,0.30
2014,11,29,15,03,0.30
2014,11,29,15,04,0.30
2014,11,29,15,05,0.30
2014,11,29,15,06,0.30
2014,11,29,15,07,0.30
2014,11,29,15,08,0.30
2014,11,29,15,09,0.30
2014,11,29,15,10,0.30
2014,11,29,15,11,0.30
2014,11,29,15,12,0.30
2014,11,29,15,13,0.40
2014,11,29,15,14,0.40
2014,11,29,15,15,0.40
2014,11,29,15,16,0.40
2014,11,29,15,17,0.40
2014,11,29,15,18,0.40
2014,11,29,15,19,0.40
2014,11,29,15,20,0.30
2014,11,29,15,21,0.30
2014,11,29,15,22,0.30
2014,11,29,15,23,0.30
2014,11,29,15,24,0.30
2014,11,29,15,25,0.30
2014,11,29,15,26,0.30
2014,11,29,15,27,0.30
2014,11,29,15,28,0.30
2014,11,29,15,29,0.30
2014,11,29,15,30,0.20
2014,11,29,15,31,0.20
2014,11,29,15,32,0.20
2014,11,29,15,33,0.20
2014,11,29,15,34,0.20
2014,11,29,15,35,0.20
2014,11,29,15,36,0.20
2014,11,29,15,37,0.20
2014,11,29,15,38,0.20
2014,11,29,15,39,0.10
2014,11,29,15,40,0.10
2014,11,29,15,41,0.00
2014,11,29,15,42,0.00
2014,11,29,15,43,0.00
2014,11,29,15,44,-0.10
2014,11,29,15,45,-0.10
2014,11,29,15,46,-0.10
2014,11,29,15,47,-0.10
2014,11,29,15,48,-0.10
2014,11,29,15,49,-0.10
2014,11,29,15,50,-0.20
2014,11,29,15,51,-0.20
2014,11,29,15,52,-0.20
2014,11,29,15,53,-0.20
2014,11,29,15,54,-0.20
2014,11,29,15,55,-0.20
2014,11,29,15,56,-0.20
2014,11,29,15,57,-0.20
2014,11,29,15,58,-0.20
2014,11,29,15,59,-0.30
2014,11,29,16,00,-0.30
2014,11,29,16,01,-0.30
2014,11,29,16,02,-0.30
2014,11,29,16,03,-0.30
2014,11,29,16,04,-0.30
2014,11,29,16,05,-0.30
2014,11,29,16,06,-0.30
2014,11,29,16,07,-0.30
2014,11,29,16,08,-0.40
2014,11,29,16,09,-0.40
2014,11,29,16,10,-0.40
2014,11,29,16,11,-0.40
2014,11,29,16,12,-0.40
2014,11,29,16,13,-0.40
2014,11,29,16,14,-0.40
2014,11,29,16,15,-0.40
2014,11,29,16,16,-0.50
2014,11,29,16,17,-0.50
2014,11,29,16,18,-0.50
2014,11,29,16,19,-0.50
2014,11,29,16,20,-0.60
2014,11,29,16,21,-0.60
2014,11,29,16,22,-0.60
2014,11,29,16,23,-0.60
2014,11,29,16,24,-0.60
2014,11,29,16,25,-0.70
2014,11,29,16,26,-0.70
2014,11,29,16,27,-0.70
2014,11,29,16,28,-0.70
2014,11,29,16,29,-0.70
2014,11,29,16,30,-0.70
2014,11,29,16,31,-0.80
2014,11,29,16,32,-0.80
2014,11,29,16,33,-0.80
2014,11,29,16,34,-0.80
2014,11,29,16,35,-0.80
2014,11,29,16,36,-0.80
2014,11,29,16,37,-0.80
2014,11,29,16,38,-0.90
2014,11,29,16,39,-0.90
2014,11,29,16,40,-0.90
2014,11,29,16,41,-0.90
2014,11,29,16,42,-0.90
2014,11,29,16,43,-1.00
2014,11,29,16,44,-1.00
2014,11,29,16,45,-1.00
2014,11,29,16,46,-1.00
2014,11,29,16,47,-1.10
2014,11,29,16,48,-1.10
2014,11,29,16,49,-1.10
2014,11,29,16,50,-1.10
2014,11,29,16,51,-1.10
2014,11,29,16,52,-1.20
2014,11,29,16,53,-1.20
2014,11,29,16,54,-1.20
2014,11,29,16,55,-1.20
2014,11,29,16,56,-1.20
2014,11,29,16,57,-1.20
2014,11,29,16,58,-1.20
2014,11,29,16,59,-1.20
2014,11,29,17,00,-1.20
2014,11,29,17,01,-1.20
2014,11,29,17,02,-1.20
2014,11,29,17,03,-1.20
2014,11,29,17,04,-1.20
2014,11,29,17,05,-1.30
2014,11,29,17,06,-1.30
2014,11,29,17,07,-1.30
2014,11,29,17,08,-1.30
2014,11,29,17,09,-1.30
2014,11,29,17,10,-1.30
2014,11,29,17,11,-1.30
2014,11,29,17,12,-1.30
2014,11,29,17,13,-1.30
2014,11,29,17,14,-1.30
2014,11,29,17,15,-1.30
2014,11,29,17,16,-1.30
2014,11,29,17,17,-1.40
2014,11,29,17,18,-1.40
2014,11,29,17,19,-1.40
2014,11,29,17,20,-1.40
2014,11,29,17,21,-1.40
2014,11,29,17,22,-1.40
2014,11,29,17,23,-1.40
2014,11,29,17,24,-1.40
2014,11,29,17,25,-1.40
2014,11,29,17,26,-1.40
2014,11,29,17,27,-1.40
2014,11,29,17,28,-1.40
2014,11,29,17,29,-1.40
2014,11,29,17,30,-1.40
2014,11,29,17,31,-1.40
2014,11,29,17,32,-1.40
2014,11,29,17,33,-1.40
2014,11,29,17,34,-1.40
2014,11,29,17,35,-1.40
2014,11,29,17,36,-1.40
2014,11,29,17,37,-1.40
2014,11,29,17,38,-1.40
2014,11,29,17,39,-1.40
2014,11,29,17,40,-1.40
2014,11,29,17,41,-1.40
2014,11,29,17,42,-1.40
2014,11,29,17,43,-1.40
2014,11,29,17,44,-1.40
2014,11,29,17,45,-1.40
2014,11,29,17,46,-1.40
2014,11,29,17,47,-1.40
2014,11,29,17,48,-1.40
2014,11,29,17,49,-1.40
2014,11,29,17,50,-1.40
2014,11,29,17,51,-1.40
2014,11,29,17,52,-1.40
2014,11,29,17,53,-1.40